Overview Statistics Trail Chart Weather Telemetry Raw packets
 

This is the latest recevied weather packets stored in our database for station/object GBTWP-2. If no packets are shown the sender has not sent any weather packets the latest 10 day(s).

<< 56 57 58 59 60 61 62 >>
Time Temp. Humidity Pressure Rain* Wind** Luminosity Snow
1788298320 31.67° C 66% 1016.7 hPa 0 mm - 91 W/m² -
1788298020 31.67° C 65% 1016.7 hPa 0 mm - 128 W/m² -
1788297720 31.67° C 65% 1016.7 hPa 0 mm - 112 W/m² -
1788297418 31.67° C 65% 1016.7 hPa 0 mm - 153 W/m² -
1788297120 31.67° C 65% 1016.7 hPa 0 mm - 182 W/m² -
1788296820 32.22° C 67% 1016.6 hPa 0 mm - 193 W/m² -
1788296520 31.67° C 68% 1016.7 hPa 0 mm - 202 W/m² -
1788296220 31.67° C 68% 1016.7 hPa 0 mm - 213 W/m² -
1788295920 31.11° C 68% 1016.8 hPa 0 mm - 201 W/m² -
1788295642 31.67° C 67% 1016.7 hPa 0 mm - 91 W/m² -
1788295320 31.67° C 68% 1016.6 hPa 0 mm - 131 W/m² -
1788295021 31.11° C 68% 1016.7 hPa 0 mm - 131 W/m² -
1788294720 31.11° C 68% 1016.6 hPa 0 mm - 336 W/m² -
1788294420 31.67° C 68% 1016.6 hPa 0 mm - 182 W/m² -
1788294121 32.22° C 66% 1016.8 hPa 0 mm - 279 W/m² -
1788293820 31.67° C 67% 1016.8 hPa 0 mm - 385 W/m² -
1788293521 31.67° C 68% 1016.9 hPa 0 mm - 316 W/m² -
1788293220 31.67° C 67% 1016.9 hPa 0 mm - 166 W/m² -
1788292920 31.11° C 69% 1016.9 hPa 0 mm - 105 W/m² -
1788292620 31.67° C 67% 1016.9 hPa 0 mm - 111 W/m² -
1788292320 31.67° C 68% 1016.9 hPa 0 mm - 138 W/m² -
1788292020 32.22° C 64% 1017.2 hPa 0 mm - 485 W/m² -
1788291720 31.67° C 67% 1017.1 hPa 0 mm - 445 W/m² -
1788291421 31.67° C 66% 1017 hPa 0 mm - 559 W/m² -
1788291120 31.67° C 65% 1017.1 hPa 0 mm - 263 W/m² -

* Rain latest hour (hover to see other rain measurements)
** Current wind speed in m/s (hover to see current wind gust speed)